Location: Dodgeville
(42.9600°N, 90.1300°W)
Time: 15:53:11
(UTC-05:00)

Amateur Radio Satellites - All Passes

Search period start: 29 July 2014 15:23
Search period end: 30 July 2014 15:23
Location: Dodgeville, 42.9600°N, 90.1300°W

Satellite Date Start Highest point End Downlink Frequencies (MHz)
Time Altitude Azimuth
UOSAT-12 29 Jul 15:30:05 15:34:31 45° 310° (NW) 15:39:03 437.025 FM, 437.400 FM
Saudisat 1A 29 Jul 15:31:31 15:35:18 27° 45° (NE) 15:39:02 436.775 MHz
ITAMSAT 1 29 Jul 15:39:53 15:43:27 19° 268° (W) 15:47:02 435.822 SSB
TMSAT-1 29 Jul 15:58:25 16:03:22 40° 262° (W) 16:08:21 436.925 FM
AO-27 29 Jul 16:01:18 16:03:07 12° 272° (W) 16:04:56 436.795 MHz FM
Uribyol 2 29 Jul 16:01:40 16:03:05 11° 272° (W) 16:04:31 436.500 FM
KITSAT 1 29 Jul 16:07:41 16:15:39 63° 245° (WSW) 16:23:32 435.175 FM
OPAL 29 Jul 16:12:12 16:15:54 20° 95° (E) 16:19:36 ?
JAS-2 29 Jul 16:17:46 16:20:56 13° 53° (NE) 16:24:00 435.800 - 435.900 CW/SSB, 435.910 FM
RS-15 29 Jul 16:24:42 16:34:28 35° 328° (NNW) 16:44:14 29.354 - 29.394 USB, Beacon 29.352 USB
Gurwin Techsat 1B 29 Jul 16:25:01 16:28:32 18° 269° (W) 16:32:04 435.225 FM
AO-7 29 Jul 16:37:08 16:45:30 78° 253° (WSW) 16:53:55 29.400 - 29.500 MHz
JAS-1B 29 Jul 16:54:05 17:00:17 20° 277° (W) 17:06:56 435.800 - 435.900 CW/SSB
Uosat F 29 Jul 16:57:30 17:02:19 44° 261° (W) 17:07:09 435.120 FM
Saudisat 1A 29 Jul 17:10:52 17:15:00 39° 243° (WSW) 17:19:04 436.775 MHz
UOSAT-12 29 Jul 17:14:58 17:15:53 11° 332° (NNW) 17:16:49 437.025 FM, 437.400 FM
Hamsat 29 Jul 17:21:06 17:24:28 24° 68° (ENE) 17:27:52 145.90 MHz
OPAL 29 Jul 17:50:08 17:55:03 52° 291° (WNW) 18:00:01 ?
JAS-2 29 Jul 17:57:05 18:04:42 60° 71° (ENE) 18:11:48 435.800 - 435.900 CW/SSB, 435.910 FM
KITSAT 1 29 Jul 18:07:33 18:09:24 11° 263° (W) 18:11:16 435.175 FM
AO-7 29 Jul 18:35:06 18:39:34 15° 272° (W) 18:44:03 29.400 - 29.500 MHz
STRAND 1 29 Jul 18:36:59 18:39:50 15° 90° (E) 18:42:40 ?
RS-15 29 Jul 18:43:07 18:51:19 23° 3° (N) 18:59:36 29.354 - 29.394 USB, Beacon 29.352 USB
SO-67 29 Jul 18:55:20 18:58:32 36° 73° (ENE) 19:01:46 435.3500 MHz FM
Hamsat 29 Jul 18:56:39 19:00:19 29° 264° (W) 19:04:01 145.90 MHz
JAS-2 29 Jul 19:43:22 19:49:58 30° 267° (W) 19:56:16 435.800 - 435.900 CW/SSB, 435.910 FM
STRAND 1 29 Jul 20:14:26 20:19:31 68° 287° (WNW) 20:24:33 ?
SO-50 29 Jul 20:22:32 20:26:38 28° 45° (NE) 20:30:47 436.795 FM
HO-68 29 Jul 20:24:46 20:31:31 47° 65° (ENE) 20:38:16 435.675 MHz FM
SO-67 29 Jul 20:30:04 20:31:47 13° 269° (W) 20:33:29 435.3500 MHz FM
RS-15 29 Jul 20:57:38 21:07:49 40° 37° (NE) 21:18:14 29.354 - 29.394 USB, Beacon 29.352 USB
UKube-1 29 Jul 21:14:01 21:18:19 63° 73° (ENE) 21:22:40 145.840 MHz, 145.915 MHz
MaSat-1 29 Jul 21:27:14 21:31:19 75° 114° (ESE) 21:36:06 437.345 MHz
Oscar 11 29 Jul 21:58:19 22:02:38 89° 257° (WSW) 22:06:58 145.825 FM, Beacon 2401.500 USB
SO-50 29 Jul 22:02:51 22:07:21 43° 243° (WSW) 22:11:54 436.795 FM
HO-68 29 Jul 22:12:51 22:19:19 36° 263° (W) 22:25:49 435.675 MHz FM
UOSAT-12 29 Jul 22:18:57 22:23:07 29° 45° (NE) 22:27:14 437.025 FM, 437.400 FM
FUNcube-1 29 Jul 22:22:14 22:26:29 61° 74° (ENE) 22:30:40 145.950 - 145.970 MHz USB
ISS 29 Jul 22:41:00 22:43:12 17° 133° (SE) 22:45:24 145.800 FM
UKube-1 29 Jul 22:53:03 22:54:56 13° 270° (W) 22:56:50 145.840 MHz, 145.915 MHz
MaSat-1 29 Jul 23:06:32 23:09:22 16° 316° (NW) 23:12:24 437.345 MHz
RS-15 29 Jul 23:10:07 23:21:05 73° 242° (WSW) 23:32:28 29.354 - 29.394 USB, Beacon 29.352 USB
PCSat 29 Jul 23:48:13 23:52:06 20° 106° (ESE) 23:55:59 145.825 MHz
UOSAT-12 29 Jul 23:58:57 00:03:23 40° 243° (WSW) 00:07:43 437.025 FM, 437.400 FM
FUNcube-1 30 Jul 00:01:32 00:03:15 12° 270° (W) 00:04:58 145.950 - 145.970 MHz USB
ISS 30 Jul 00:16:15 00:19:35 66° 329° (NNW) 00:22:55 145.800 FM
Sapphire 30 Jul 00:56:17 01:01:39 71° 117° (ESE) 01:07:04 437.095 MHz 1200 baud AX-25 AFSK
AO-40 30 Jul 01:08:05 03:21:32 28° 204° (SSW) 07:42:09 Beacon 2401.320
Oscar 19 30 Jul 01:20:48 01:23:19 14° 89° (E) 01:25:50 437.125 CW, 437.150 USB
RS-15 30 Jul 01:25:22 01:31:27 17° 263° (W) 01:37:40 29.354 - 29.394 USB, Beacon 29.352 USB
PCSat 30 Jul 01:29:41 01:35:02 60° 304° (NW) 01:40:25 145.825 MHz
Oscar 16 30 Jul 01:47:58 01:52:15 26° 94° (E) 01:56:32 437.025 USB, Beacon 2401.1428
ISS 30 Jul 01:54:06 01:56:46 21° 348° (NNW) 01:59:25 145.800 FM
Oscar 10/S400 30 Jul 01:58:03 02:40:05 60° 191° (SSW) 11:12:25 145.825 - 145.975 CW/USB, Beacon 145.810 USB
ITAMSAT 1 30 Jul 02:11:31 02:15:07 19° 92° (E) 02:18:42 435.822 SSB
Uribyol 2 30 Jul 02:30:02 02:34:32 29° 96° (E) 02:39:00 436.500 FM
AO-27 30 Jul 02:30:23 02:34:51 29° 95° (E) 02:39:17 436.795 MHz FM
Sapphire 30 Jul 02:41:31 02:45:38 22° 317° (NW) 02:49:46 437.095 MHz 1200 baud AX-25 AFSK
JAS-1B 30 Jul 02:46:04 02:54:22 35° 91° (E) 03:01:33 435.800 - 435.900 CW/SSB
Oscar 19 30 Jul 02:58:02 03:03:13 76° 286° (WNW) 03:08:23 437.125 CW, 437.150 USB
Gurwin Techsat 1B 30 Jul 02:58:58 03:03:06 23° 93° (E) 03:07:13 435.225 FM
AO-Echo 30 Jul 03:06:10 03:11:14 65° 101° (E) 03:16:04 ?
PCSat 30 Jul 03:17:05 03:19:37 13° 325° (NW) 03:22:09 145.825 MHz
Oscar 16 30 Jul 03:26:55 03:31:43 40° 291° (WNW) 03:36:31 437.025 USB, Beacon 2401.1428
OPAL 30 Jul 03:27:47 03:32:21 39° 66° (ENE) 03:36:57 ?
ISS 30 Jul 03:31:45 03:34:19 20° 9° (N) 03:36:54 145.800 FM
ITAMSAT 1 30 Jul 03:49:54 03:54:58 55° 289° (WNW) 03:59:59 435.822 SSB
Uribyol 2 30 Jul 04:09:22 04:14:02 35° 293° (WNW) 04:18:41 436.500 FM
AO-27 30 Jul 04:09:41 04:14:25 37° 292° (WNW) 04:19:07 436.795 MHz FM
TMSAT-1 30 Jul 04:12:52 04:18:11 77° 103° (ESE) 04:23:28 436.925 FM
JAS-1B 30 Jul 04:36:07 04:45:19 59° 293° (WNW) 04:53:13 435.800 - 435.900 CW/SSB
AO-7 30 Jul 04:38:12 04:45:37 35° 97° (E) 04:52:57 29.400 - 29.500 MHz
Gurwin Techsat 1B 30 Jul 04:38:13 04:43:19 48° 290° (WNW) 04:48:22 435.225 FM
Oscar 19 30 Jul 04:40:26 04:41:40 11° 304° (NW) 04:42:54 437.125 CW, 437.150 USB
KITSAT 1 30 Jul 04:45:06 04:49:54 17° 100° (E) 04:54:41 435.175 FM
AO-Echo 30 Jul 04:46:15 04:49:26 17° 300° (WNW) 04:52:33 ?
Uosat F 30 Jul 05:04:05 05:09:00 52° 100° (E) 05:13:52 435.120 FM
OPAL 30 Jul 05:07:18 05:11:20 25° 263° (W) 05:15:25 ?
ISS 30 Jul 05:08:17 05:11:35 53° 28° (NNE) 05:14:53 145.800 FM
MaSat-1 30 Jul 05:44:48 05:49:25 29° 52° (NE) 05:53:53 437.345 MHz
STRAND 1 30 Jul 05:53:20 05:57:30 25° 64° (ENE) 06:01:39 ?
TMSAT-1 30 Jul 05:54:24 05:57:27 16° 301° (WNW) 06:00:30 436.925 FM
JAS-1B 30 Jul 06:28:39 06:33:38 16° 316° (NW) 06:38:21 435.800 - 435.900 CW/SSB
AO-7 30 Jul 06:30:38 06:38:42 56° 296° (WNW) 06:46:43 29.400 - 29.500 MHz
KITSAT 1 30 Jul 06:35:58 06:44:04 83° 119° (ESE) 06:52:12 435.175 FM
Hamsat 30 Jul 06:40:50 06:44:57 43° 98° (E) 06:49:05 145.90 MHz
Uosat F 30 Jul 06:43:45 06:47:24 21° 298° (WNW) 06:51:02 435.120 FM
ISS 30 Jul 06:45:27 06:48:06 22° 225° (SW) 06:50:44 145.800 FM
JAS-2 30 Jul 06:52:03 06:57:38 42° 96° (E) 07:02:41 435.800 - 435.900 CW/SSB, 435.910 FM
Saudisat 1A 30 Jul 07:17:53 07:22:02 42° 117° (ESE) 07:26:12 436.775 MHz
MaSat-1 30 Jul 07:21:55 07:26:57 44° 251° (WSW) 07:31:39 437.345 MHz
STRAND 1 30 Jul 07:31:34 07:36:27 43° 261° (W) 07:41:20 ?
SO-67 30 Jul 07:51:12 07:54:29 38° 98° (E) 07:57:45 435.3500 MHz FM
Sapphire 30 Jul 08:01:26 08:04:23 15° 36° (NE) 08:07:19 437.095 MHz 1200 baud AX-25 AFSK
Hamsat 30 Jul 08:17:38 08:20:37 19° 295° (WNW) 08:23:36 145.90 MHz
AO-7 30 Jul 08:25:52 08:29:42 14° 317° (NW) 08:33:32 29.400 - 29.500 MHz
KITSAT 1 30 Jul 08:33:33 08:40:25 29° 322° (NW) 08:47:18 435.175 FM
PCSat 30 Jul 08:33:56 08:38:18 24° 45° (NE) 08:42:39 145.825 MHz
JAS-2 30 Jul 08:37:32 08:42:30 28° 298° (WNW) 08:47:03 435.800 - 435.900 CW/SSB, 435.910 FM
Saudisat 1A 30 Jul 08:58:02 09:01:46 26° 316° (NW) 09:05:30 436.775 MHz
SO-67 30 Jul 09:25:30 09:27:13 13° 294° (WNW) 09:28:56 435.3500 MHz FM
HO-68 30 Jul 09:38:41 09:45:27 43° 99° (E) 09:52:09 435.675 MHz FM
Sapphire 30 Jul 09:43:25 09:48:51 68° 58° (ENE) 09:54:15 437.095 MHz 1200 baud AX-25 AFSK
Oscar 11 30 Jul 09:46:20 09:48:59 16° 91° (E) 09:51:37 145.825 FM, Beacon 2401.500 USB
FUNcube-1 30 Jul 10:13:22 10:13:57 10° 89° (E) 10:14:33 145.950 - 145.970 MHz USB
PCSat 30 Jul 10:16:47 10:22:09 62° 244° (WSW) 10:27:28 145.825 MHz
KITSAT 1 30 Jul 10:35:17 10:39:05 14° 351° (N) 10:42:53 435.175 FM
UKube-1 30 Jul 10:37:30 10:41:52 79° 285° (WNW) 10:46:12 145.840 MHz, 145.915 MHz
Oscar 11 30 Jul 11:21:15 11:25:27 49° 288° (WNW) 11:29:37 145.825 FM, Beacon 2401.500 USB
HO-68 30 Jul 11:26:33 11:33:03 39° 297° (WNW) 11:39:32 435.675 MHz FM
Sapphire 30 Jul 11:28:12 11:31:41 18° 255° (WSW) 11:35:11 437.095 MHz 1200 baud AX-25 AFSK
RS-15 30 Jul 11:29:15 11:34:34 15° 96° (E) 11:39:49 29.354 - 29.394 USB, Beacon 29.352 USB
FUNcube-1 30 Jul 11:46:39 11:50:49 69° 285° (WNW) 11:55:00 145.950 - 145.970 MHz USB
SO-50 30 Jul 12:18:28 12:22:46 50° 118° (ESE) 12:27:10 436.795 FM
KITSAT 1 30 Jul 12:33:24 12:38:32 18° 22° (NNE) 12:43:38 435.175 FM
Oscar 19 30 Jul 12:38:08 12:42:03 23° 63° (ENE) 12:45:59 437.125 CW, 437.150 USB
AO-Echo 30 Jul 12:44:10 12:46:41 14° 58° (ENE) 12:49:13 ?
Oscar 16 30 Jul 13:05:44 13:10:30 41° 69° (ENE) 13:15:18 437.025 USB, Beacon 2401.1428
JAS-1B 30 Jul 13:29:41 13:37:46 36° 58° (ENE) 13:46:23 435.800 - 435.900 CW/SSB
ITAMSAT 1 30 Jul 13:30:07 13:34:42 32° 66° (ENE) 13:39:17 435.822 SSB
RS-15 30 Jul 13:33:44 13:44:45 70° 117° (ESE) 13:55:34 29.354 - 29.394 USB, Beacon 29.352 USB
Uribyol 2 30 Jul 13:48:39 13:53:39 49° 70° (ENE) 13:58:38 436.500 FM
AO-27 30 Jul 13:49:14 13:54:14 48° 70° (ENE) 13:59:15 436.795 MHz FM
AO-7 30 Jul 13:51:41 13:54:58 13° 41° (NE) 13:58:15 29.400 - 29.500 MHz
TMSAT-1 30 Jul 13:56:59 14:00:31 19° 61° (ENE) 14:04:04 436.925 FM
SO-50 30 Jul 13:59:58 14:03:36 23° 318° (NW) 14:07:18 436.795 FM
UOSAT-12 30 Jul 14:10:32 14:14:58 50° 118° (ESE) 14:19:30 437.025 FM, 437.400 FM
Oscar 19 30 Jul 14:16:09 14:21:04 48° 261° (W) 14:26:02 437.125 CW, 437.150 USB
AO-Echo 30 Jul 14:19:21 14:24:41 89° 74° (ENE) 14:30:02 ?
Gurwin Techsat 1B 30 Jul 14:20:44 14:25:38 39° 68° (ENE) 14:30:32 435.225 FM
KITSAT 1 30 Jul 14:28:24 14:36:13 49° 49° (NE) 14:43:57 435.175 FM
Uosat F 30 Jul 14:43:49 14:45:13 11° 56° (ENE) 14:46:37 435.120 FM
Oscar 16 30 Jul 14:45:50 14:50:00 25° 266° (W) 14:54:11 437.025 USB, Beacon 2401.1428
ITAMSAT 1 30 Jul 15:09:26 15:14:07 33° 263° (W) 15:18:50 435.822 SSB
